When you browse on this site, cookies collect data to enhance your experience and personalize the content and advertising you see.
Visit our Privacy Policy to learn more. By continuing to use the site, you agree to this use of cookies and data.

Meteo orario Monterey

Oggi, 9 Luglio, Giovedi

Tempo Temperatura Precipitazioni Vento Pressione Umidità
00:00 +14°C° 0 mm 2 m/s 752 mm Hg 76%
01:00 +14°C° 0 mm 2 m/s 752 mm Hg 74%
02:00 +14°C° 0 mm 2 m/s 752 mm Hg 73%
03:00 +14°C° 0 mm 2 m/s 752 mm Hg 73%
04:00 +13°C° 0 mm 2 m/s 752 mm Hg 73%
05:00 +15°C° 0 mm 2 m/s 752 mm Hg 68%
06:00 +17°C° 0 mm 2 m/s 752 mm Hg 64%
07:00 +20°C° 0 mm 1 m/s 753 mm Hg 59%
08:00 +21°C° 0 mm 2 m/s 753 mm Hg 53%
09:00 +24°C° 0 mm 2 m/s 753 mm Hg 46%
10:00 +27°C° 0 mm 3 m/s 753 mm Hg 40%
11:00 +27°C° 0 mm 3 m/s 753 mm Hg 39%
12:00 +28°C° 0 mm 3 m/s 753 mm Hg 39%
13:00 +28°C° 0 mm 4 m/s 753 mm Hg 38%
14:00 +27°C° 0 mm 4 m/s 752 mm Hg 41%
15:00 +26°C° 0 mm 4 m/s 752 mm Hg 44%
16:00 +25°C° 0 mm 4 m/s 752 mm Hg 46%
17:00 +23°C° 0 mm 4 m/s 752 mm Hg 51%
18:00 +21°C° 0 mm 4 m/s 752 mm Hg 57%
19:00 +20°C° 0 mm 4 m/s 752 mm Hg 62%
20:00 +19°C° 0 mm 4 m/s 753 mm Hg 64%
21:00 +18°C° 0 mm 3 m/s 753 mm Hg 66%
22:00 +17°C° 0 mm 3 m/s 753 mm Hg 68%
23:00 +16°C° 0 mm 3 m/s 753 mm Hg 68%

Domani, 10 Luglio, Venerdi

Tempo Temperatura Precipitazioni Vento Pressione Umidità
00:00 +16°C° 0 mm 3 m/s 753 mm Hg 68%
01:00 +16°C° 0 mm 3 m/s 753 mm Hg 68%
02:00 +16°C° 0 mm 3 m/s 753 mm Hg 69%
03:00 +16°C° 0 mm 2 m/s 754 mm Hg 70%
04:00 +15°C° 0 mm 2 m/s 754 mm Hg 71%
05:00 +17°C° 0 mm 2 m/s 754 mm Hg 65%
06:00 +19°C° 0 mm 2 m/s 754 mm Hg 59%
07:00 +21°C° 0 mm 2 m/s 754 mm Hg 53%
08:00 +24°C° 0 mm 3 m/s 755 mm Hg 48%
09:00 +26°C° 0 mm 3 m/s 755 mm Hg 43%
10:00 +28°C° 0 mm 4 m/s 755 mm Hg 38%
11:00 +28°C° 0 mm 4 m/s 755 mm Hg 38%
12:00 +28°C° 0 mm 4 m/s 755 mm Hg 38%
13:00 +28°C° 0 mm 4 m/s 755 mm Hg 38%
14:00 +27°C° 0 mm 4 m/s 755 mm Hg 41%
15:00 +26°C° 0 mm 4 m/s 754 mm Hg 44%
16:00 +25°C° 0 mm 4 m/s 754 mm Hg 46%
17:00 +22°C° 0 mm 4 m/s 754 mm Hg 52%
18:00 +21°C° 0 mm 4 m/s 754 mm Hg 57%
19:00 +19°C° 0 mm 3 m/s 754 mm Hg 63%
20:00 +18°C° 0 mm 3 m/s 754 mm Hg 63%
21:00 +17°C° 0 mm 3 m/s 755 mm Hg 64%
22:00 +16°C° 0 mm 3 m/s 755 mm Hg 64%
23:00 +16°C° 0 mm 3 m/s 755 mm Hg 66%

Dopodomani, 11 Luglio, Sabato

Tempo Temperatura Precipitazioni Vento Pressione Umidità
00:00 +16°C° 0 mm 3 m/s 755 mm Hg 67%
01:00 +14°C° 0 mm 3 m/s 755 mm Hg 68%
02:00 +14°C° 0 mm 3 m/s 755 mm Hg 66%
03:00 +14°C° 0 mm 3 m/s 755 mm Hg 64%
04:00 +15°C° 0 mm 2 m/s 754 mm Hg 62%
05:00 +17°C° 0 mm 2 m/s 755 mm Hg 58%
06:00 +19°C° 0 mm 2 m/s 755 mm Hg 55%
07:00 +21°C° 0 mm 2 m/s 755 mm Hg 51%
08:00 +24°C° 0 mm 3 m/s 756 mm Hg 47%
09:00 +26°C° 0 mm 3 m/s 756 mm Hg 42%
10:00 +28°C° 0 mm 4 m/s 756 mm Hg 38%
11:00 +28°C° 0 mm 4 m/s 756 mm Hg 38%
12:00 +28°C° 0 mm 4 m/s 756 mm Hg 38%
13:00 +28°C° 0 mm 5 m/s 756 mm Hg 39%
14:00 +27°C° 0 mm 5 m/s 755 mm Hg 41%
15:00 +26°C° 0 mm 5 m/s 755 mm Hg 43%
16:00 +25°C° 0 mm 5 m/s 754 mm Hg 45%
17:00 +22°C° 0 mm 4 m/s 754 mm Hg 50%
18:00 +21°C° 0 mm 4 m/s 755 mm Hg 54%
19:00 +19°C° 0 mm 3 m/s 755 mm Hg 59%
20:00 +18°C° 0 mm 3 m/s 755 mm Hg 59%
21:00 +17°C° 0 mm 3 m/s 755 mm Hg 58%
22:00 +17°C° 0 mm 2 m/s 755 mm Hg 58%
23:00 +16°C° 0 mm 2 m/s 755 mm Hg 59%

12 Luglio, Domenica

Tempo Temperatura Precipitazioni Vento Pressione Umidità
00:00 +16°C° 0 mm 2 m/s 755 mm Hg 59%
01:00 +16°C° 0 mm 2 m/s 754 mm Hg 60%
02:00 +16°C° 0 mm 2 m/s 754 mm Hg 59%
03:00 +16°C° 0 mm 2 m/s 754 mm Hg 58%
04:00 +16°C° 0 mm 2 m/s 754 mm Hg 57%
05:00 +18°C° 0 mm 2 m/s 754 mm Hg 54%
06:00 +19°C° 0 mm 2 m/s 754 mm Hg 51%
07:00 +21°C° 0 mm 2 m/s 755 mm Hg 48%
08:00 +24°C° 0 mm 3 m/s 754 mm Hg 43%
09:00 +27°C° 0 mm 3 m/s 754 mm Hg 38%
10:00 +29°C° 0 mm 3 m/s 754 mm Hg 34%
11:00 +29°C° 0 mm 4 m/s 754 mm Hg 33%
12:00 +30°C° 0 mm 4 m/s 753 mm Hg 33%
13:00 +30°C° 0 mm 4 m/s 753 mm Hg 32%
14:00 +29°C° 0 mm 4 m/s 753 mm Hg 35%
15:00 +28°C° 0 mm 4 m/s 752 mm Hg 38%
16:00 +27°C° 0 mm 4 m/s 752 mm Hg 40%
17:00 +23°C° 0 mm 4 m/s 752 mm Hg 46%
18:00 +21°C° 0 mm 3 m/s 752 mm Hg 51%
19:00 +19°C° 0 mm 3 m/s 752 mm Hg 56%
20:00 +18°C° 0 mm 3 m/s 752 mm Hg 57%
21:00 +17°C° 0 mm 3 m/s 752 mm Hg 58%
22:00 +17°C° 0 mm 2 m/s 752 mm Hg 59%
23:00 +16°C° 0 mm 2 m/s 752 mm Hg 62%

13 Luglio, Lunedi

Tempo Temperatura Precipitazioni Vento Pressione Umidità
00:00 +16°C° 0 mm 2 m/s 752 mm Hg 65%
01:00 +16°C° 0 mm 2 m/s 752 mm Hg 69%
02:00 +15°C° 0 mm 2 m/s 752 mm Hg 71%
03:00 +14°C° 0 mm 3 m/s 752 mm Hg 74%
04:00 +14°C° 0 mm 3 m/s 752 mm Hg 77%
05:00 +16°C° 0 mm 3 m/s 752 mm Hg 73%
06:00 +18°C° 0 mm 3 m/s 752 mm Hg 70%
07:00 +19°C° 0 mm 3 m/s 752 mm Hg 67%
08:00 +21°C° 0 mm 3 m/s 752 mm Hg 61%
09:00 +22°C° 0 mm 4 m/s 752 mm Hg 56%
10:00 +25°C° 0 mm 4 m/s 752 mm Hg 51%
11:00 +25°C° 0 mm 4 m/s 752 mm Hg 49%
12:00 +26°C° 0 mm 4 m/s 752 mm Hg 48%
13:00 +26°C° 0 mm 4 m/s 751 mm Hg 47%
14:00 +25°C° 0 mm 4 m/s 751 mm Hg 50%
15:00 +23°C° 0 mm 4 m/s 751 mm Hg 53%
16:00 +23°C° 0 mm 4 m/s 751 mm Hg 56%
17:00 +20°C° 0 mm 3 m/s 751 mm Hg 64%
18:00 +18°C° 0 mm 3 m/s 750 mm Hg 72%
19:00 +16°C° 0 mm 2 m/s 750 mm Hg 80%
20:00 +15°C° 0 mm 2 m/s 751 mm Hg 81%
21:00 +15°C° 0 mm 2 m/s 751 mm Hg 82%
22:00 +14°C° 0 mm 1 m/s 751 mm Hg 83%
23:00 +14°C° 0 mm 1 m/s 751 mm Hg 82%

14 Luglio, Martedi

Tempo Temperatura Precipitazioni Vento Pressione Umidità
00:00 +14°C° 0 mm 1 m/s 751 mm Hg 81%
01:00 +13°C° 0 mm 1 m/s 750 mm Hg 80%
02:00 +13°C° 0 mm 1 m/s 750 mm Hg 81%
03:00 +13°C° 0 mm 1 m/s 750 mm Hg 81%
04:00 +13°C° 0 mm 2 m/s 750 mm Hg 81%
05:00 +15°C° 0 mm 2 m/s 751 mm Hg 76%
06:00 +16°C° 0 mm 2 m/s 751 mm Hg 70%
07:00 +18°C° 0 mm 2 m/s 751 mm Hg 64%
08:00 +20°C° 0 mm 3 m/s 751 mm Hg 59%
09:00 +22°C° 0 mm 4 m/s 751 mm Hg 53%
10:00 +25°C° 0 mm 5 m/s 751 mm Hg 48%
11:00 +25°C° 0 mm 5 m/s 751 mm Hg 48%
12:00 +26°C° 0 mm 5 m/s 751 mm Hg 48%
13:00 +26°C° 0 mm 5 m/s 750 mm Hg 49%
14:00 +25°C° 0 mm 5 m/s 750 mm Hg 52%
15:00 +23°C° 0 mm 4 m/s 750 mm Hg 55%
16:00 +22°C° 0 mm 4 m/s 749 mm Hg 59%
17:00 +20°C° 0 mm 3 m/s 749 mm Hg 67%
18:00 +18°C° 0 mm 3 m/s 750 mm Hg 75%
19:00 +16°C° 0 mm 2 m/s 750 mm Hg 84%
20:00 +15°C° 0 mm 2 m/s 750 mm Hg 86%
21:00 +15°C° 0 mm 2 m/s 750 mm Hg 88%
22:00 +14°C° 0 mm 1 m/s 751 mm Hg 90%
23:00 +14°C° 0 mm 1 m/s 751 mm Hg 90%
Mostrare altro